Location: Il Ritiro
(43.4167°N, 13.1333°E)
Time: 16:29:20
(UTC+00:00)

NOSS 3-4 (C) - Pass Details

Date: 05 July 2020
Orbit: 891 x 1321 km, 63.4° (Epoch: 12 July)

Event Time Altitude Azimuth Distance (km) Brightness Sun altitude
Rises 22:06:55 0° 323° (NW) 3,834 7.8 -22.2°
Reaches altitude 10° 22:09:27 10° 323° (NW) 2,936 7.0 -22.4°
Maximum altitude 22:16:31 89° 50° (NE) 1,178 3.8 -22.7°
Enters shadow 22:19:54 38° 144° (SE) 1,777 4.4 -22.8°
